<?xml version="1.0" encoding="UTF-8" standalone="no" ?>
<gpx xmlns="http://www.topografix.com/GPX/1/1" xmlns:xsi="http://www.w3.org/2001/XMLSchema-instance" xsi:schemaLocation="http://www.topografix.com/GPX/1/1 http://www.topografix.com/GPX/1/1/gpx.xsd" version="1.1" creator="VisuGPX - https://www.visugpx.com">
  <metadata>
    <name>Cabanne du Bazet</name>
    <desc><![CDATA[Boucle au depart de portet d\'aspet ( village ) vers la cabane du bazet et retour par le col de bene]]></desc>
  </metadata>
  <trk>
    <name><![CDATA[ACTIVE LOG101901]]></name>
    <trkseg>
      <trkpt lat="42.93604" lon="0.85895">
        <ele>873.226</ele>
        <time>2014-01-18T09:18:58Z</time>
      </trkpt>
      <trkpt lat="42.93608" lon="0.85883">
        <ele>874.648</ele>
        <time>2014-01-18T09:19:18Z</time>
      </trkpt>
      <trkpt lat="42.93603" lon="0.85851">
        <ele>877.353</ele>
        <time>2014-01-18T09:19:43Z</time>
      </trkpt>
      <trkpt lat="42.93602" lon="0.85822">
        <ele>881.271</ele>
        <time>2014-01-18T09:20:13Z</time>
      </trkpt>
      <trkpt lat="42.93594" lon="0.85788">
        <ele>883.448</ele>
        <time>2014-01-18T09:20:40Z</time>
      </trkpt>
      <trkpt lat="42.93543" lon="0.85771">
        <ele>885.023</ele>
        <time>2014-01-18T09:21:07Z</time>
      </trkpt>
      <trkpt lat="42.93555" lon="0.85735">
        <ele>886.418</ele>
        <time>2014-01-18T09:21:36Z</time>
      </trkpt>
      <trkpt lat="42.93523" lon="0.85711">
        <ele>888.63</ele>
        <time>2014-01-18T09:22:07Z</time>
      </trkpt>
      <trkpt lat="42.93496" lon="0.85706">
        <ele>890.799</ele>
        <time>2014-01-18T09:22:34Z</time>
      </trkpt>
      <trkpt lat="42.9346" lon="0.85649">
        <ele>893.517</ele>
        <time>2014-01-18T09:23:23Z</time>
      </trkpt>
      <trkpt lat="42.93439" lon="0.85618">
        <ele>899.899</ele>
        <time>2014-01-18T09:24:10Z</time>
      </trkpt>
      <trkpt lat="42.93412" lon="0.85581">
        <ele>904.552</ele>
        <time>2014-01-18T09:24:50Z</time>
      </trkpt>
      <trkpt lat="42.9338" lon="0.85558">
        <ele>909.214</ele>
        <time>2014-01-18T09:25:36Z</time>
      </trkpt>
      <trkpt lat="42.93346" lon="0.85553">
        <ele>911.539</ele>
        <time>2014-01-18T09:26:05Z</time>
      </trkpt>
      <trkpt lat="42.93313" lon="0.85554">
        <ele>914.759</ele>
        <time>2014-01-18T09:26:30Z</time>
      </trkpt>
      <trkpt lat="42.93285" lon="0.85544">
        <ele>917.054</ele>
        <time>2014-01-18T09:26:55Z</time>
      </trkpt>
      <trkpt lat="42.93268" lon="0.85554">
        <ele>921.188</ele>
        <time>2014-01-18T09:27:37Z</time>
      </trkpt>
      <trkpt lat="42.93239" lon="0.85584">
        <ele>925.014</ele>
        <time>2014-01-18T09:29:04Z</time>
      </trkpt>
      <trkpt lat="42.93228" lon="0.85604">
        <ele>929.009</ele>
        <time>2014-01-18T09:29:34Z</time>
      </trkpt>
      <trkpt lat="42.93211" lon="0.8561">
        <ele>930.782</ele>
        <time>2014-01-18T09:30:06Z</time>
      </trkpt>
      <trkpt lat="42.93177" lon="0.85655">
        <ele>941.052</ele>
        <time>2014-01-18T09:31:30Z</time>
      </trkpt>
      <trkpt lat="42.93139" lon="0.85711">
        <ele>951.571</ele>
        <time>2014-01-18T09:33:08Z</time>
      </trkpt>
    </trkseg>
  </trk>
</gpx>